Year,Month,Day,Hour,Minute,Value (Times are PST for temperature in C)
2014,05,05,00,00,8.60
2014,05,05,00,01,8.60
2014,05,05,00,02,8.60
2014,05,05,00,03,8.60
2014,05,05,00,04,8.60
2014,05,05,00,05,8.60
2014,05,05,00,06,8.60
2014,05,05,00,07,8.70
2014,05,05,00,08,8.60
2014,05,05,00,09,8.70
2014,05,05,00,10,8.70
2014,05,05,00,11,8.60
2014,05,05,00,12,8.70
2014,05,05,00,13,8.60
2014,05,05,00,14,8.70
2014,05,05,00,15,8.70
2014,05,05,00,16,8.70
2014,05,05,00,17,8.70
2014,05,05,00,18,8.70
2014,05,05,00,19,8.70
2014,05,05,00,20,8.70
2014,05,05,00,21,8.70
2014,05,05,00,22,8.70
2014,05,05,00,23,8.70
2014,05,05,00,24,8.70
2014,05,05,00,25,8.70
2014,05,05,00,26,8.70
2014,05,05,00,27,8.70
2014,05,05,00,28,8.70
2014,05,05,00,29,8.70
2014,05,05,00,30,8.70
2014,05,05,00,31,8.70
2014,05,05,00,32,8.70
2014,05,05,00,33,8.70
2014,05,05,00,34,8.70
2014,05,05,00,35,8.70
2014,05,05,00,36,8.70
2014,05,05,00,37,8.70
2014,05,05,00,38,8.70
2014,05,05,00,39,8.70
2014,05,05,00,40,8.70
2014,05,05,00,41,8.70
2014,05,05,00,42,8.80
2014,05,05,00,43,8.80
2014,05,05,00,44,8.80
2014,05,05,00,45,8.80
2014,05,05,00,46,8.80
2014,05,05,00,47,8.80
2014,05,05,00,48,8.80
2014,05,05,00,49,8.80
2014,05,05,00,50,8.80
2014,05,05,00,51,8.80
2014,05,05,00,52,8.80
2014,05,05,00,53,8.80
2014,05,05,00,54,8.80
2014,05,05,00,55,8.80
2014,05,05,00,56,8.80
2014,05,05,00,57,8.80
2014,05,05,00,58,8.80
2014,05,05,00,59,8.80
2014,05,05,01,00,8.80
2014,05,05,01,01,8.80
2014,05,05,01,02,8.80
2014,05,05,01,03,8.80
2014,05,05,01,04,8.80
2014,05,05,01,05,8.80
2014,05,05,01,06,8.80
2014,05,05,01,07,8.80
2014,05,05,01,08,8.80
2014,05,05,01,09,8.80
2014,05,05,01,10,8.80
2014,05,05,01,11,8.80
2014,05,05,01,12,8.80
2014,05,05,01,13,8.80
2014,05,05,01,14,8.80
2014,05,05,01,15,8.80
2014,05,05,01,16,8.80
2014,05,05,01,17,8.80
2014,05,05,01,18,8.80
2014,05,05,01,19,8.80
2014,05,05,01,20,8.80
2014,05,05,01,21,8.80
2014,05,05,01,22,8.80
2014,05,05,01,23,8.80
2014,05,05,01,24,8.90
2014,05,05,01,25,8.90
2014,05,05,01,26,8.90
2014,05,05,01,27,8.90
2014,05,05,01,28,8.90
2014,05,05,01,29,8.80
2014,05,05,01,30,8.80
2014,05,05,01,31,8.80
2014,05,05,01,32,8.80
2014,05,05,01,33,8.80
2014,05,05,01,34,8.80
2014,05,05,01,35,8.80
2014,05,05,01,36,8.80
2014,05,05,01,37,8.80
2014,05,05,01,38,8.80
2014,05,05,01,39,8.80
2014,05,05,01,40,8.80
2014,05,05,01,41,8.80
2014,05,05,01,42,8.80
2014,05,05,01,43,8.80
2014,05,05,01,44,8.80
2014,05,05,01,45,8.80
2014,05,05,01,46,8.80
2014,05,05,01,47,8.80
2014,05,05,01,48,8.80
2014,05,05,01,49,8.80
2014,05,05,01,50,8.80
2014,05,05,01,51,8.80
2014,05,05,01,52,8.80
2014,05,05,01,53,8.80
2014,05,05,01,54,8.80
2014,05,05,01,55,8.80
2014,05,05,01,56,8.80
2014,05,05,01,57,8.80
2014,05,05,01,58,8.80
2014,05,05,01,59,8.80
2014,05,05,02,00,8.70
2014,05,05,02,01,8.80
2014,05,05,02,02,8.70
2014,05,05,02,03,8.70
2014,05,05,02,04,8.70
2014,05,05,02,05,8.70
2014,05,05,02,06,8.70
2014,05,05,02,07,8.70
2014,05,05,02,08,8.70
2014,05,05,02,09,8.70
2014,05,05,02,10,8.70
2014,05,05,02,11,8.70
2014,05,05,02,12,8.70
2014,05,05,02,13,8.70
2014,05,05,02,14,8.70
2014,05,05,02,15,8.70
2014,05,05,02,16,8.70
2014,05,05,02,17,8.70
2014,05,05,02,18,8.70
2014,05,05,02,19,8.70
2014,05,05,02,20,8.70
2014,05,05,02,21,8.70
2014,05,05,02,22,8.70
2014,05,05,02,23,8.70
2014,05,05,02,24,8.70
2014,05,05,02,25,8.70
2014,05,05,02,26,8.60
2014,05,05,02,27,8.60
2014,05,05,02,28,8.60
2014,05,05,02,29,8.60
2014,05,05,02,30,8.60
2014,05,05,02,31,8.60
2014,05,05,02,32,8.60
2014,05,05,02,33,8.60
2014,05,05,02,34,8.60
2014,05,05,02,35,8.60
2014,05,05,02,36,8.60
2014,05,05,02,37,8.60
2014,05,05,02,38,8.60
2014,05,05,02,39,8.60
2014,05,05,02,40,8.60
2014,05,05,02,41,8.50
2014,05,05,02,42,8.50
2014,05,05,02,43,8.50
2014,05,05,02,44,8.50
2014,05,05,02,45,8.50
2014,05,05,02,46,8.50
2014,05,05,02,47,8.50
2014,05,05,02,48,8.50
2014,05,05,02,49,8.50
2014,05,05,02,50,8.50
2014,05,05,02,51,8.50
2014,05,05,02,52,8.50
2014,05,05,02,53,8.50
2014,05,05,02,54,8.50
2014,05,05,02,55,8.50
2014,05,05,02,56,8.50
2014,05,05,02,57,8.50
2014,05,05,02,58,8.50
2014,05,05,02,59,8.50
2014,05,05,03,00,8.50
2014,05,05,03,01,8.50
2014,05,05,03,02,8.60
2014,05,05,03,03,8.60
2014,05,05,03,04,8.60
2014,05,05,03,05,8.60
2014,05,05,03,06,8.50
2014,05,05,03,07,8.50
2014,05,05,03,08,8.50
2014,05,05,03,09,8.50
2014,05,05,03,10,8.50
2014,05,05,03,11,8.50
2014,05,05,03,12,8.50
2014,05,05,03,13,8.50
2014,05,05,03,14,8.50
2014,05,05,03,15,8.50
2014,05,05,03,16,8.50
2014,05,05,03,17,8.50
2014,05,05,03,18,8.50
2014,05,05,03,19,8.50
2014,05,05,03,20,8.50
2014,05,05,03,21,8.50
2014,05,05,03,22,8.50
2014,05,05,03,23,8.50
2014,05,05,03,24,8.50
2014,05,05,03,25,8.60
2014,05,05,03,26,8.60
2014,05,05,03,27,8.60
2014,05,05,03,28,8.60
2014,05,05,03,29,8.60
2014,05,05,03,30,8.50
2014,05,05,03,31,8.60
2014,05,05,03,32,8.50
2014,05,05,03,33,8.50
2014,05,05,03,34,8.50
2014,05,05,03,35,8.60
2014,05,05,03,36,8.60
2014,05,05,03,37,8.60
2014,05,05,03,38,8.60
2014,05,05,03,39,8.60
2014,05,05,03,40,8.60
2014,05,05,03,41,8.60
2014,05,05,03,42,8.60
2014,05,05,03,43,8.60
2014,05,05,03,44,8.60
2014,05,05,03,45,8.60
2014,05,05,03,46,8.60
2014,05,05,03,47,8.60
2014,05,05,03,48,8.60
2014,05,05,03,49,8.60
2014,05,05,03,50,8.60
2014,05,05,03,51,8.60
2014,05,05,03,52,8.60
2014,05,05,03,53,8.60
2014,05,05,03,54,8.60
2014,05,05,03,55,8.60
2014,05,05,03,56,8.60
2014,05,05,03,57,8.60
2014,05,05,03,58,8.60
2014,05,05,03,59,8.60
2014,05,05,04,00,8.60
2014,05,05,04,01,8.60
2014,05,05,04,02,8.60
2014,05,05,04,03,8.60
2014,05,05,04,04,8.60
2014,05,05,04,05,8.70
2014,05,05,04,06,8.70
2014,05,05,04,07,8.70
2014,05,05,04,08,8.70
2014,05,05,04,09,8.70
2014,05,05,04,10,8.70
2014,05,05,04,11,8.70
2014,05,05,04,12,8.70
2014,05,05,04,13,8.70
2014,05,05,04,14,8.70
2014,05,05,04,15,8.70
2014,05,05,04,16,8.70
2014,05,05,04,17,8.70
2014,05,05,04,18,8.60
2014,05,05,04,19,8.60
2014,05,05,04,20,8.60
2014,05,05,04,21,8.60
2014,05,05,04,22,8.60
2014,05,05,04,23,8.60
2014,05,05,04,24,8.60
2014,05,05,04,25,8.60
2014,05,05,04,26,8.60
2014,05,05,04,27,8.60
2014,05,05,04,28,8.60
2014,05,05,04,29,8.60
2014,05,05,04,30,8.60
2014,05,05,04,31,8.60
2014,05,05,04,32,8.60
2014,05,05,04,33,8.60
2014,05,05,04,34,8.60
2014,05,05,04,35,8.60
2014,05,05,04,36,8.60
2014,05,05,04,37,8.50
2014,05,05,04,38,8.50
2014,05,05,04,39,8.50
2014,05,05,04,40,8.50
2014,05,05,04,41,8.50
2014,05,05,04,42,8.50
2014,05,05,04,43,8.40
2014,05,05,04,44,8.40
2014,05,05,04,45,8.40
2014,05,05,04,46,8.40
2014,05,05,04,47,8.40
2014,05,05,04,48,8.40
2014,05,05,04,49,8.40
2014,05,05,04,50,8.40
2014,05,05,04,51,8.40
2014,05,05,04,52,8.30
2014,05,05,04,53,8.30
2014,05,05,04,54,8.30
2014,05,05,04,55,8.30
2014,05,05,04,56,8.30
2014,05,05,04,57,8.30
2014,05,05,04,58,8.30
2014,05,05,04,59,8.30
2014,05,05,05,00,8.30
2014,05,05,05,01,8.30
2014,05,05,05,02,8.30
2014,05,05,05,03,8.30
2014,05,05,05,04,8.30
2014,05,05,05,05,8.30
2014,05,05,05,06,8.30
2014,05,05,05,07,8.30
2014,05,05,05,08,8.30
2014,05,05,05,09,8.30
2014,05,05,05,10,8.30
2014,05,05,05,11,8.30
2014,05,05,05,12,8.30
2014,05,05,05,13,8.30
2014,05,05,05,14,8.30
2014,05,05,05,15,8.30
2014,05,05,05,16,8.30
2014,05,05,05,17,8.30
2014,05,05,05,18,8.30
2014,05,05,05,19,8.30
2014,05,05,05,20,8.30
2014,05,05,05,21,8.30
2014,05,05,05,22,8.30
2014,05,05,05,23,8.30
2014,05,05,05,24,8.30
2014,05,05,05,25,8.30
2014,05,05,05,26,8.40
2014,05,05,05,27,8.40
2014,05,05,05,28,8.40
2014,05,05,05,29,8.40
2014,05,05,05,30,8.40
2014,05,05,05,31,8.40
2014,05,05,05,32,8.40
2014,05,05,05,33,8.50
2014,05,05,05,34,8.50
2014,05,05,05,35,8.50
2014,05,05,05,36,8.50
2014,05,05,05,37,8.50
2014,05,05,05,38,8.50
2014,05,05,05,39,8.50
2014,05,05,05,40,8.50
2014,05,05,05,41,8.50
2014,05,05,05,42,8.50
2014,05,05,05,43,8.50
2014,05,05,05,44,8.50
2014,05,05,05,45,8.50
2014,05,05,05,46,8.50
2014,05,05,05,47,8.50
2014,05,05,05,48,8.50
2014,05,05,05,49,8.50
2014,05,05,05,50,8.50
2014,05,05,05,51,8.50
2014,05,05,05,52,8.50
2014,05,05,05,53,8.50
2014,05,05,05,54,8.50
2014,05,05,05,55,8.50
2014,05,05,05,56,8.50
2014,05,05,05,57,8.50
2014,05,05,05,58,8.50
2014,05,05,05,59,8.50
2014,05,05,06,00,8.50
2014,05,05,06,01,8.50
2014,05,05,06,02,8.50
2014,05,05,06,03,8.50
2014,05,05,06,04,8.50
2014,05,05,06,05,8.50
2014,05,05,06,06,8.50
2014,05,05,06,07,8.50
2014,05,05,06,08,8.50
2014,05,05,06,09,8.50
2014,05,05,06,10,8.50
2014,05,05,06,11,8.50
2014,05,05,06,12,8.40
2014,05,05,06,13,8.50
2014,05,05,06,14,8.40
2014,05,05,06,15,8.40
2014,05,05,06,16,8.40
2014,05,05,06,17,8.40
2014,05,05,06,18,8.40
2014,05,05,06,19,8.40
2014,05,05,06,20,8.40
2014,05,05,06,21,8.40
2014,05,05,06,22,8.40
2014,05,05,06,23,8.40
2014,05,05,06,24,8.40
2014,05,05,06,25,8.50
2014,05,05,06,26,8.50
2014,05,05,06,27,8.40
2014,05,05,06,28,8.50
2014,05,05,06,29,8.50
2014,05,05,06,30,8.50
2014,05,05,06,31,8.50
2014,05,05,06,32,8.50
2014,05,05,06,33,8.50
2014,05,05,06,34,8.50
2014,05,05,06,35,8.50
2014,05,05,06,36,8.50
2014,05,05,06,37,8.50
2014,05,05,06,38,8.50
2014,05,05,06,39,8.50
2014,05,05,06,40,8.50
2014,05,05,06,41,8.50
2014,05,05,06,42,8.50
2014,05,05,06,43,8.50
2014,05,05,06,44,8.60
2014,05,05,06,45,8.60
2014,05,05,06,46,8.60
2014,05,05,06,47,8.60
2014,05,05,06,48,8.60
2014,05,05,06,49,8.60
2014,05,05,06,50,8.60
2014,05,05,06,51,8.60
2014,05,05,06,52,8.60
2014,05,05,06,53,8.60
2014,05,05,06,54,8.60
2014,05,05,06,55,8.60
2014,05,05,06,56,8.60
2014,05,05,06,57,8.70
2014,05,05,06,58,8.70
2014,05,05,06,59,8.70
2014,05,05,07,00,8.70
2014,05,05,07,01,8.70
2014,05,05,07,02,8.70
2014,05,05,07,03,8.70
2014,05,05,07,04,8.70
2014,05,05,07,05,8.70
2014,05,05,07,06,8.80
2014,05,05,07,07,8.80
2014,05,05,07,08,8.80
2014,05,05,07,09,8.80
2014,05,05,07,10,8.80
2014,05,05,07,11,8.80
2014,05,05,07,12,8.90
2014,05,05,07,13,8.90
2014,05,05,07,14,8.90
2014,05,05,07,15,8.90
2014,05,05,07,16,8.90
2014,05,05,07,17,8.90
2014,05,05,07,18,8.90
2014,05,05,07,19,9.00
2014,05,05,07,20,9.00
2014,05,05,07,21,9.00
2014,05,05,07,22,9.00
2014,05,05,07,23,9.10
2014,05,05,07,24,9.10
2014,05,05,07,25,9.10
2014,05,05,07,26,9.10
2014,05,05,07,27,9.10
2014,05,05,07,28,9.20
2014,05,05,07,29,9.20
2014,05,05,07,30,9.20
2014,05,05,07,31,9.20
2014,05,05,07,32,9.20
2014,05,05,07,33,9.20
2014,05,05,07,34,9.30
2014,05,05,07,35,9.30
2014,05,05,07,36,9.30
2014,05,05,07,37,9.30
2014,05,05,07,38,9.30
2014,05,05,07,39,9.40
2014,05,05,07,40,9.40
2014,05,05,07,41,9.40
2014,05,05,07,42,9.40
2014,05,05,07,43,9.40
2014,05,05,07,44,9.40
2014,05,05,07,45,9.40
2014,05,05,07,46,9.40
2014,05,05,07,47,9.40
2014,05,05,07,48,9.50
2014,05,05,07,49,9.50
2014,05,05,07,50,9.50
2014,05,05,07,51,9.50
2014,05,05,07,52,9.50
2014,05,05,07,53,9.60
2014,05,05,07,54,9.60
2014,05,05,07,55,9.60
2014,05,05,07,56,9.60
2014,05,05,07,57,9.60
2014,05,05,07,58,9.60
2014,05,05,07,59,9.60
2014,05,05,08,00,9.60
2014,05,05,08,01,9.60
2014,05,05,08,02,9.60
2014,05,05,08,03,9.60
2014,05,05,08,04,9.70
2014,05,05,08,05,9.70
2014,05,05,08,06,9.70
2014,05,05,08,07,9.70
2014,05,05,08,08,9.70
2014,05,05,08,09,9.80
2014,05,05,08,10,9.80
2014,05,05,08,11,9.80
2014,05,05,08,12,9.80
2014,05,05,08,13,9.80
2014,05,05,08,14,9.80
2014,05,05,08,15,9.90
2014,05,05,08,16,9.90
2014,05,05,08,17,9.90
2014,05,05,08,18,9.90
2014,05,05,08,19,9.90
2014,05,05,08,20,9.90
2014,05,05,08,21,9.90
2014,05,05,08,22,9.90
2014,05,05,08,23,9.90
2014,05,05,08,24,9.90
2014,05,05,08,25,9.90
2014,05,05,08,26,9.90
2014,05,05,08,27,9.90
2014,05,05,08,28,10.00
2014,05,05,08,29,10.00
2014,05,05,08,30,10.00
2014,05,05,08,31,10.10
2014,05,05,08,32,10.10
2014,05,05,08,33,10.10
2014,05,05,08,34,10.10
2014,05,05,08,35,10.20
2014,05,05,08,36,10.20
2014,05,05,08,37,10.20
2014,05,05,08,38,10.30
2014,05,05,08,39,10.30
2014,05,05,08,40,10.30
2014,05,05,08,41,10.30
2014,05,05,08,42,10.30
2014,05,05,08,43,10.30
2014,05,05,08,44,10.30
2014,05,05,08,45,10.30
2014,05,05,08,46,10.30
2014,05,05,08,47,10.30
2014,05,05,08,48,10.30
2014,05,05,08,49,10.30
2014,05,05,08,50,10.40
2014,05,05,08,51,10.40
2014,05,05,08,52,10.40
2014,05,05,08,53,10.50
2014,05,05,08,54,10.50
2014,05,05,08,55,10.50
2014,05,05,08,56,10.60
2014,05,05,08,57,10.60
2014,05,05,08,58,10.60
2014,05,05,08,59,10.70
2014,05,05,09,00,10.70
2014,05,05,09,01,10.70
2014,05,05,09,02,10.80
2014,05,05,09,03,10.80
2014,05,05,09,04,10.80
2014,05,05,09,05,10.90
2014,05,05,09,06,10.90
2014,05,05,09,07,11.00
2014,05,05,09,08,11.00
2014,05,05,09,09,11.10
2014,05,05,09,10,11.10
2014,05,05,09,11,11.10
2014,05,05,09,12,11.10
2014,05,05,09,13,11.10
2014,05,05,09,14,11.10
2014,05,05,09,15,11.20
2014,05,05,09,16,11.20
2014,05,05,09,17,11.20
2014,05,05,09,18,11.30
2014,05,05,09,19,11.30
2014,05,05,09,20,11.40
2014,05,05,09,21,11.50
2014,05,05,09,22,11.50
2014,05,05,09,23,11.60
2014,05,05,09,24,11.70
2014,05,05,09,25,11.80
2014,05,05,09,26,11.80
2014,05,05,09,27,11.80
2014,05,05,09,28,11.70
2014,05,05,09,29,11.60
2014,05,05,09,30,11.40
2014,05,05,09,31,11.30
2014,05,05,09,32,11.20
2014,05,05,09,33,11.10
2014,05,05,09,34,11.00
2014,05,05,09,35,10.90
2014,05,05,09,36,10.80
2014,05,05,09,37,10.80
2014,05,05,09,38,10.70
2014,05,05,09,39,10.70
2014,05,05,09,40,10.70
2014,05,05,09,41,10.70
2014,05,05,09,42,10.70
2014,05,05,09,43,10.70
2014,05,05,09,44,10.80
2014,05,05,09,45,10.80
2014,05,05,09,46,10.90
2014,05,05,09,47,10.90
2014,05,05,09,48,11.00
2014,05,05,09,49,11.00
2014,05,05,09,50,11.10
2014,05,05,09,51,11.10
2014,05,05,09,52,11.20
2014,05,05,09,53,11.20
2014,05,05,09,54,11.30
2014,05,05,09,55,11.40
2014,05,05,09,56,11.50
2014,05,05,09,57,11.60
2014,05,05,09,58,11.70
2014,05,05,09,59,11.70
2014,05,05,10,00,11.70
2014,05,05,10,01,11.70
2014,05,05,10,02,11.70
2014,05,05,10,03,11.60
2014,05,05,10,04,11.50
2014,05,05,10,05,11.50
2014,05,05,10,06,11.50
2014,05,05,10,07,11.60
2014,05,05,10,08,11.60
2014,05,05,10,09,11.60
2014,05,05,10,10,11.60
2014,05,05,10,11,11.60
2014,05,05,10,12,11.60
2014,05,05,10,13,11.50
2014,05,05,10,14,11.50
2014,05,05,10,15,11.50
2014,05,05,10,16,11.50
2014,05,05,10,17,11.50
2014,05,05,10,18,11.50
2014,05,05,10,19,11.60
2014,05,05,10,20,11.70
2014,05,05,10,21,11.80
2014,05,05,10,22,11.90
2014,05,05,10,23,12.10
2014,05,05,10,24,12.20
2014,05,05,10,25,12.40
2014,05,05,10,26,12.60
2014,05,05,10,27,12.70
2014,05,05,10,28,12.70
2014,05,05,10,29,12.70
2014,05,05,10,30,12.80
2014,05,05,10,31,12.80
2014,05,05,10,32,12.80
2014,05,05,10,33,12.90
2014,05,05,10,34,12.90
2014,05,05,10,35,12.80
2014,05,05,10,36,12.60
2014,05,05,10,37,12.50
2014,05,05,10,38,12.40
2014,05,05,10,39,12.30
2014,05,05,10,40,12.20
2014,05,05,10,41,12.10
2014,05,05,10,42,12.00
2014,05,05,10,43,11.90
2014,05,05,10,44,11.90
2014,05,05,10,45,11.80
2014,05,05,10,46,11.80
2014,05,05,10,47,11.80
2014,05,05,10,48,11.70
2014,05,05,10,49,11.70
2014,05,05,10,50,11.70
2014,05,05,10,51,11.80
2014,05,05,10,52,11.70
2014,05,05,10,53,11.70
2014,05,05,10,54,11.80
2014,05,05,10,55,11.80
2014,05,05,10,56,11.80
2014,05,05,10,57,11.80
2014,05,05,10,58,11.80
2014,05,05,10,59,11.90
2014,05,05,11,00,12.00
2014,05,05,11,01,12.00
2014,05,05,11,02,12.10
2014,05,05,11,03,12.20
2014,05,05,11,04,12.20
2014,05,05,11,05,12.30
2014,05,05,11,06,12.30
2014,05,05,11,07,12.30
2014,05,05,11,08,12.40
2014,05,05,11,09,12.50
2014,05,05,11,10,12.70
2014,05,05,11,11,12.80
2014,05,05,11,12,12.90
2014,05,05,11,13,13.00
2014,05,05,11,14,13.10
2014,05,05,11,15,13.30
2014,05,05,11,16,13.40
2014,05,05,11,17,13.60
2014,05,05,11,18,13.70
2014,05,05,11,19,13.80
2014,05,05,11,20,13.80
2014,05,05,11,21,13.90
2014,05,05,11,22,14.00
2014,05,05,11,23,14.10
2014,05,05,11,24,14.20
2014,05,05,11,25,14.30
2014,05,05,11,26,14.30
2014,05,05,11,27,14.20
2014,05,05,11,28,14.10
2014,05,05,11,29,14.00
2014,05,05,11,30,13.90
2014,05,05,11,31,13.90
2014,05,05,11,32,13.80
2014,05,05,11,33,13.70
2014,05,05,11,34,13.70
2014,05,05,11,35,13.70
2014,05,05,11,36,13.70
2014,05,05,11,37,13.80
2014,05,05,11,38,13.80
2014,05,05,11,39,13.80
2014,05,05,11,40,13.80
2014,05,05,11,41,13.90
2014,05,05,11,42,14.00
2014,05,05,11,43,14.00
2014,05,05,11,44,14.10
2014,05,05,11,45,14.20
2014,05,05,11,46,14.20
2014,05,05,11,47,14.20
2014,05,05,11,48,14.10
2014,05,05,11,49,14.00
2014,05,05,11,50,13.90
2014,05,05,11,51,13.90
2014,05,05,11,52,14.00
2014,05,05,11,53,14.00
2014,05,05,11,54,14.10
2014,05,05,11,55,14.10
2014,05,05,11,56,14.00
2014,05,05,11,57,14.00
2014,05,05,11,58,13.90
2014,05,05,11,59,13.80
2014,05,05,12,00,13.70
2014,05,05,12,01,13.60
2014,05,05,12,02,13.60
2014,05,05,12,03,13.60
2014,05,05,12,04,13.50
2014,05,05,12,05,13.50
2014,05,05,12,06,13.40
2014,05,05,12,07,13.30
2014,05,05,12,08,13.20
2014,05,05,12,09,13.20
2014,05,05,12,10,13.20
2014,05,05,12,11,13.20
2014,05,05,12,12,13.20
2014,05,05,12,13,13.10
2014,05,05,12,14,13.00
2014,05,05,12,15,13.00
2014,05,05,12,16,13.00
2014,05,05,12,17,13.00
2014,05,05,12,18,13.00
2014,05,05,12,19,13.00
2014,05,05,12,20,13.00
2014,05,05,12,21,13.10
2014,05,05,12,22,13.10
2014,05,05,12,23,13.20
2014,05,05,12,24,13.30
2014,05,05,12,25,13.40
2014,05,05,12,26,13.40
2014,05,05,12,27,13.40
2014,05,05,12,28,13.50
2014,05,05,12,29,13.50
2014,05,05,12,30,13.60
2014,05,05,12,31,13.60
2014,05,05,12,32,13.70
2014,05,05,12,33,13.70
2014,05,05,12,34,13.80
2014,05,05,12,35,14.00
2014,05,05,12,36,14.00
2014,05,05,12,37,14.10
2014,05,05,12,38,14.10
2014,05,05,12,39,14.10
2014,05,05,12,40,14.20
2014,05,05,12,41,14.20
2014,05,05,12,42,14.30
2014,05,05,12,43,14.40
2014,05,05,12,44,14.40
2014,05,05,12,45,14.50
2014,05,05,12,46,14.60
2014,05,05,12,47,14.70
2014,05,05,12,48,14.70
2014,05,05,12,49,14.60
2014,05,05,12,50,14.60
2014,05,05,12,51,14.50
2014,05,05,12,52,14.40
2014,05,05,12,53,14.40
2014,05,05,12,54,14.40
2014,05,05,12,55,14.40
2014,05,05,12,56,14.50
2014,05,05,12,57,14.40
2014,05,05,12,58,14.30
2014,05,05,12,59,14.10
2014,05,05,13,00,14.00
2014,05,05,13,01,13.90
2014,05,05,13,02,14.00
2014,05,05,13,03,14.00
2014,05,05,13,04,14.10
2014,05,05,13,05,14.20
2014,05,05,13,06,14.20
2014,05,05,13,07,14.20
2014,05,05,13,08,14.20
2014,05,05,13,09,14.20
2014,05,05,13,10,14.30
2014,05,05,13,11,14.30
2014,05,05,13,12,14.40
2014,05,05,13,13,14.50
2014,05,05,13,14,14.60
2014,05,05,13,15,14.70
2014,05,05,13,16,14.70
2014,05,05,13,17,14.80
2014,05,05,13,18,14.90
2014,05,05,13,19,14.90
2014,05,05,13,20,14.80
2014,05,05,13,21,14.80
2014,05,05,13,22,14.70
2014,05,05,13,23,14.70
2014,05,05,13,24,14.70
2014,05,05,13,25,14.70
2014,05,05,13,26,14.80
2014,05,05,13,27,14.80
2014,05,05,13,28,14.80
2014,05,05,13,29,14.90
2014,05,05,13,30,15.00
2014,05,05,13,31,15.10
2014,05,05,13,32,15.00
2014,05,05,13,33,15.00
2014,05,05,13,34,14.80
2014,05,05,13,35,14.60
2014,05,05,13,36,14.50
2014,05,05,13,37,14.40
2014,05,05,13,38,14.30
2014,05,05,13,39,14.20
2014,05,05,13,40,14.20
2014,05,05,13,41,14.20
2014,05,05,13,42,14.20
2014,05,05,13,43,14.20
2014,05,05,13,44,14.20
2014,05,05,13,45,14.20
2014,05,05,13,46,14.20
2014,05,05,13,47,14.30
2014,05,05,13,48,14.30
2014,05,05,13,49,14.30
2014,05,05,13,50,14.40
2014,05,05,13,51,14.40
2014,05,05,13,52,14.50
2014,05,05,13,53,14.50
2014,05,05,13,54,14.50
2014,05,05,13,55,14.50
2014,05,05,13,56,14.50
2014,05,05,13,57,14.50
2014,05,05,13,58,14.50
2014,05,05,13,59,14.40
2014,05,05,14,00,14.30
2014,05,05,14,01,14.20
2014,05,05,14,02,14.20
2014,05,05,14,03,14.10
2014,05,05,14,04,14.10
2014,05,05,14,05,14.10
2014,05,05,14,06,14.10
2014,05,05,14,07,14.10
2014,05,05,14,08,14.10
2014,05,05,14,09,14.00
2014,05,05,14,10,13.90
2014,05,05,14,11,13.90
2014,05,05,14,12,13.90
2014,05,05,14,13,13.90
2014,05,05,14,14,13.90
2014,05,05,14,15,13.90
2014,05,05,14,16,13.90
2014,05,05,14,17,13.90
2014,05,05,14,18,14.00
2014,05,05,14,19,14.10
2014,05,05,14,20,14.20
2014,05,05,14,21,14.30
2014,05,05,14,22,14.50
2014,05,05,14,23,14.60
2014,05,05,14,24,14.70
2014,05,05,14,25,14.80
2014,05,05,14,26,14.80
2014,05,05,14,27,14.90
2014,05,05,14,28,14.90
2014,05,05,14,29,14.90
2014,05,05,14,30,14.90
2014,05,05,14,31,14.80
2014,05,05,14,32,14.80
2014,05,05,14,33,14.70
2014,05,05,14,34,14.70
2014,05,05,14,35,14.70
2014,05,05,14,36,14.60
2014,05,05,14,37,14.60
2014,05,05,14,38,14.70
2014,05,05,14,39,14.70
2014,05,05,14,40,14.70
2014,05,05,14,41,14.80
2014,05,05,14,42,14.80
2014,05,05,14,43,14.80
2014,05,05,14,44,14.80
2014,05,05,14,45,14.70
2014,05,05,14,46,14.50
2014,05,05,14,47,14.30
2014,05,05,14,48,14.30
2014,05,05,14,49,14.20
2014,05,05,14,50,14.20
2014,05,05,14,51,14.20
2014,05,05,14,52,14.20
2014,05,05,14,53,14.20
2014,05,05,14,54,14.10
2014,05,05,14,55,14.00
2014,05,05,14,56,13.90
2014,05,05,14,57,13.80
2014,05,05,14,58,13.80
2014,05,05,14,59,13.70
2014,05,05,15,00,13.70
2014,05,05,15,01,13.70
2014,05,05,15,02,13.70
2014,05,05,15,03,13.80
2014,05,05,15,04,13.80
2014,05,05,15,05,13.80
2014,05,05,15,06,13.90
2014,05,05,15,07,13.90
2014,05,05,15,08,13.90
2014,05,05,15,09,13.90
2014,05,05,15,10,13.80
2014,05,05,15,11,13.80
2014,05,05,15,12,13.80
2014,05,05,15,13,13.80
2014,05,05,15,14,13.80
2014,05,05,15,15,13.80
2014,05,05,15,16,13.90
2014,05,05,15,17,13.90
2014,05,05,15,18,14.00
2014,05,05,15,19,14.00
2014,05,05,15,20,14.10
2014,05,05,15,21,14.10
2014,05,05,15,22,14.20
2014,05,05,15,23,14.30
2014,05,05,15,24,14.40
2014,05,05,15,25,14.40
2014,05,05,15,26,14.50
2014,05,05,15,27,14.60
2014,05,05,15,28,14.60
2014,05,05,15,29,14.70
2014,05,05,15,30,14.70
2014,05,05,15,31,14.80
2014,05,05,15,32,14.90
2014,05,05,15,33,15.00
2014,05,05,15,34,15.10
2014,05,05,15,35,15.20
2014,05,05,15,36,15.30
2014,05,05,15,37,15.40
2014,05,05,15,38,15.50
2014,05,05,15,39,15.50
2014,05,05,15,40,15.40
2014,05,05,15,41,15.30
2014,05,05,15,42,15.30
2014,05,05,15,43,15.20
2014,05,05,15,44,15.10
2014,05,05,15,45,15.10
2014,05,05,15,46,15.00
2014,05,05,15,47,14.90
2014,05,05,15,48,14.80
2014,05,05,15,49,14.70
2014,05,05,15,50,14.60
2014,05,05,15,51,14.50
2014,05,05,15,52,14.40
2014,05,05,15,53,14.30
2014,05,05,15,54,14.30
2014,05,05,15,55,14.30
2014,05,05,15,56,14.20
2014,05,05,15,57,14.10
2014,05,05,15,58,14.10
2014,05,05,15,59,14.10
2014,05,05,16,00,14.10
2014,05,05,16,01,14.10
2014,05,05,16,02,14.20
2014,05,05,16,03,14.20
2014,05,05,16,04,14.20
2014,05,05,16,05,14.30
2014,05,05,16,06,14.40
2014,05,05,16,07,14.50
2014,05,05,16,08,14.60
2014,05,05,16,09,14.70
2014,05,05,16,10,14.80
2014,05,05,16,11,14.80
2014,05,05,16,12,14.80
2014,05,05,16,13,14.90
2014,05,05,16,14,14.90
2014,05,05,16,15,14.90
2014,05,05,16,16,15.00
2014,05,05,16,17,15.00
2014,05,05,16,18,15.10
2014,05,05,16,19,15.20
2014,05,05,16,20,15.30
2014,05,05,16,21,15.30
2014,05,05,16,22,15.30
2014,05,05,16,23,15.30
2014,05,05,16,24,15.30
2014,05,05,16,25,15.30
2014,05,05,16,26,15.30
2014,05,05,16,27,15.30
2014,05,05,16,28,15.30
2014,05,05,16,29,15.20
2014,05,05,16,30,15.10
2014,05,05,16,31,15.00
2014,05,05,16,32,14.90
2014,05,05,16,33,14.80
2014,05,05,16,34,14.80
2014,05,05,16,35,14.70
2014,05,05,16,36,14.70
2014,05,05,16,37,14.70
2014,05,05,16,38,14.70
2014,05,05,16,39,14.70
2014,05,05,16,40,14.70
2014,05,05,16,41,14.80
2014,05,05,16,42,14.90
2014,05,05,16,43,14.90
2014,05,05,16,44,15.00
2014,05,05,16,45,15.10
2014,05,05,16,46,15.10
2014,05,05,16,47,15.20
2014,05,05,16,48,15.20
2014,05,05,16,49,15.20
2014,05,05,16,50,15.20
2014,05,05,16,51,15.20
2014,05,05,16,52,15.30
2014,05,05,16,53,15.30
2014,05,05,16,54,15.30
2014,05,05,16,55,15.30
2014,05,05,16,56,15.30
2014,05,05,16,57,15.30
2014,05,05,16,58,15.30
2014,05,05,16,59,15.30
2014,05,05,17,00,15.30
2014,05,05,17,01,15.30
2014,05,05,17,02,15.30
2014,05,05,17,03,15.20
2014,05,05,17,04,15.20
2014,05,05,17,05,15.10
2014,05,05,17,06,15.10
2014,05,05,17,07,15.10
2014,05,05,17,08,15.10
2014,05,05,17,09,15.10
2014,05,05,17,10,15.10
2014,05,05,17,11,15.10
2014,05,05,17,12,15.20
2014,05,05,17,13,15.20
2014,05,05,17,14,15.20
2014,05,05,17,15,15.30
2014,05,05,17,16,15.30
2014,05,05,17,17,15.30
2014,05,05,17,18,15.30
2014,05,05,17,19,15.30
2014,05,05,17,20,15.30
2014,05,05,17,21,15.30
2014,05,05,17,22,15.30
2014,05,05,17,23,15.30
2014,05,05,17,24,15.20
2014,05,05,17,25,15.20
2014,05,05,17,26,15.10
2014,05,05,17,27,15.10
2014,05,05,17,28,15.00
2014,05,05,17,29,15.00
2014,05,05,17,30,14.90
2014,05,05,17,31,14.90
2014,05,05,17,32,14.90
2014,05,05,17,33,14.80
2014,05,05,17,34,14.80
2014,05,05,17,35,14.80
2014,05,05,17,36,14.80
2014,05,05,17,37,14.80
2014,05,05,17,38,14.90
2014,05,05,17,39,14.90
2014,05,05,17,40,14.90
2014,05,05,17,41,14.90